Metropolis, IL

7:54 AM CST on December 12, 2019 (GMT -0600)
Metropolis

Weather History for KM30 - October, 2019

Change the Weather History Date:

Monday, October 21, 2019

  Actual Average (WUND) Record (WUND)
Temperature  
Mean Temperature 62 °F -  
Max Temperature 67 °F - - (-1)
Min Temperature 56 °F - - (-1)
Degree Days  
Heating Degree Days 4    
Growing Degree Days 12 (Base 50)    
Moisture  
Dew Point 59 °F    
Average Humidity 85    
Maximum Humidity 97    
Minimum Humidity 73    
Precipitation  
Precipitation 0.93 in - - ()
Sea Level Pressure  
Sea Level Pressure 29.72 in    
Wind  
Wind Speed 6 mph ()    
Max Wind Speed 17 mph    
Max Gust Speed 31 mph    
Visibility 9.1 miles    
Events Rain , Thunderstorm    
Averages and records for this station are not official NWS values.
T = Trace of Precipitation, MM = Missing Value Source: Averaged Metar Reports

Daily Weather History Graph

Daily Weather History Graph

Search for Another Location

Airport or City:

Astronomy

Oct. 21, 2019 Rise Set
Actual Time 7:08 AM CDT 6:10 PM CDT
Civil Twilight 6:41 AM CDT 6:36 PM CDT
Nautical Twilight 6:11 AM CDT 7:07 PM CDT
Astronomical Twilight 5:41 AM CDT 7:37 PM CDT
Moon No Moon Rise 2:21 PM CDT (10/21)
Length of Visible Light 11h 54m
Length of Day
11h 02m
Waning Gibbous, 48% of the Moon is Illuminated
Oct 21
Waning Gibbous
Oct 27
New
Nov 4
First Quarter
Nov 12
Full
Nov 19
Last Quarter

Hourly Weather History & Observations

Time (CDT) Temp. Dew Point Humidity Pressure Visibility Wind Dir Wind Speed Gust Speed Precip Events Conditions
12:15 AM 62.8 °F 56.5 °F 80% 29.78 in 10.0 mi SE 4.6 mph - N/A   Clear
12:35 AM 63.1 °F 56.5 °F 79% 29.78 in 10.0 mi SSE 5.8 mph - N/A   Clear
12:55 AM 63.9 °F 56.8 °F 78% 29.78 in 10.0 mi Calm Calm - N/A   Mostly Cloudy
1:15 AM 64.6 °F 57.2 °F 77% 29.78 in 10.0 mi Calm Calm - N/A   Overcast
1:35 AM 64.0 °F 57.2 °F 78% 29.76 in 10.0 mi SE 4.6 mph - N/A   Scattered Clouds
1:55 AM 63.7 °F 57.2 °F 79% 29.76 in 10.0 mi SE 4.6 mph - N/A   Scattered Clouds
2:15 AM 63.7 °F 57.4 °F 80% 29.75 in 10.0 mi SE 4.6 mph - N/A   Scattered Clouds
2:35 AM 64.4 °F 57.6 °F 78% 29.73 in 10.0 mi ESE 4.6 mph - N/A   Overcast
2:55 AM 64.4 °F 57.6 °F 78% 29.71 in 10.0 mi ESE 5.8 mph - N/A   Mostly Cloudy
3:15 AM 64.4 °F 57.7 °F 79% 29.70 in 10.0 mi SE 6.9 mph - N/A   Scattered Clouds
3:35 AM 64.8 °F 57.7 °F 78% 29.69 in 10.0 mi SE 4.6 mph - N/A   Mostly Cloudy
3:55 AM 64.8 °F 58.6 °F 81% 29.68 in 10.0 mi SE 8.1 mph - N/A   Mostly Cloudy
4:15 AM 65.5 °F 59.4 °F 81% 29.66 in 10.0 mi SE 6.9 mph 19.6 mph N/A   Mostly Cloudy
4:35 AM 67.6 °F 60.3 °F 77% 29.64 in 10.0 mi SSE 9.2 mph 19.6 mph N/A   Overcast
4:55 AM 65.8 °F 61.5 °F 86% 29.62 in 7.0 mi SSE 10.4 mph 19.6 mph 0.05 in Rain , Thunderstorm Light Thunderstorms and Rain
5:15 AM 66.4 °F 62.2 °F 86% 29.64 in 4.0 mi South 12.7 mph 23.0 mph 0.09 in Rain , Thunderstorm Heavy Thunderstorms and Rain
5:35 AM 65.5 °F 62.6 °F 90% 29.66 in 10.0 mi South 12.7 mph 18.4 mph 0.13 in Thunderstorm Thunderstorm
5:55 AM 65.3 °F 62.8 °F 92% 29.67 in 10.0 mi South 10.4 mph - 0.13 in Thunderstorm Overcast
6:15 AM 65.3 °F 63.3 °F 93% 29.69 in 2.0 mi WSW 5.8 mph 18.4 mph 0.03 in Rain , Thunderstorm Thunderstorms and Rain
6:35 AM 62.4 °F 60.4 °F 93% 29.72 in 3.0 mi West 10.4 mph 18.4 mph 0.24 in Rain , Thunderstorm Heavy Thunderstorms and Rain
6:55 AM 61.7 °F 60.1 °F 94% 29.67 in 7.0 mi NW 3.5 mph - 0.29 in Rain , Thunderstorm Rain
7:15 AM 61.3 °F 60.1 °F 96% 29.68 in 5.0 mi Calm Calm - 0.03 in Rain Rain
7:35 AM 61.3 °F 60.3 °F 96% 29.69 in 3.0 mi Calm Calm - 0.08 in Rain Heavy Rain
7:55 AM 61.2 °F 60.3 °F 97% 29.67 in 2.5 mi Calm Calm - 0.16 in   Overcast
8:15 AM 61.7 °F 61.0 °F 97% 29.72 in 1.0 mi SSW 6.9 mph 20.7 mph 0.24 in Rain Heavy Rain
8:35 AM 61.7 °F 60.8 °F 97% 29.71 in 5.0 mi South 5.8 mph - 0.28 in Rain Rain
8:55 AM 61.9 °F 60.8 °F 96% 29.69 in 10.0 mi South 5.8 mph - 0.30 in Rain Light Rain
9:15 AM 62.2 °F 61.0 °F 96% 29.65 in 10.0 mi ESE 6.9 mph - N/A   Light Drizzle
9:35 AM 62.6 °F 61.3 °F 96% 29.63 in 10.0 mi SE 10.4 mph - N/A Rain Light Rain
9:55 AM 63.5 °F 61.9 °F 94% 29.66 in 10.0 mi South 8.1 mph - N/A   Mostly Cloudy
10:15 AM 64.4 °F 62.6 °F 94% 29.69 in 10.0 mi SSW 5.8 mph - N/A Rain Light Rain
10:35 AM 64.4 °F 61.9 °F 92% 29.68 in 10.0 mi South 8.1 mph - N/A Rain Light Rain
10:55 AM 64.8 °F 61.5 °F 89% 29.63 in 10.0 mi SSE 10.4 mph 17.3 mph N/A Rain Light Rain
11:15 AM 64.9 °F 61.3 °F 88% 29.66 in 10.0 mi South 11.5 mph 16.1 mph N/A Rain Light Rain
11:35 AM 65.5 °F 62.6 °F 90% 29.71 in 10.0 mi SW 8.1 mph - N/A   Mostly Cloudy
11:55 AM 65.3 °F 62.2 °F 90% 29.72 in 10.0 mi SSW 6.9 mph 17.3 mph N/A   Overcast
12:15 PM 65.5 °F 61.9 °F 88% 29.72 in 10.0 mi SSW 11.5 mph 20.7 mph N/A   Overcast
12:35 PM 65.5 °F 61.5 °F 87% 29.70 in 10.0 mi South 10.4 mph 19.6 mph N/A   Overcast
12:55 PM 65.7 °F 61.0 °F 85% 29.69 in 10.0 mi South 10.4 mph 20.7 mph N/A   Overcast
1:15 PM 65.5 °F 60.3 °F 83% 29.69 in 10.0 mi South 10.4 mph 20.7 mph N/A   Overcast
1:35 PM 65.7 °F 60.1 °F 82% 29.69 in 10.0 mi South 10.4 mph 24.2 mph N/A   Overcast
1:55 PM 65.8 °F 60.3 °F 82% 29.69 in 10.0 mi SSW 13.8 mph 19.6 mph N/A   Overcast
2:15 PM 66.2 °F 59.5 °F 79% 29.69 in 10.0 mi South 11.5 mph 19.6 mph N/A   Overcast
2:35 PM 66.9 °F 59.2 °F 76% 29.69 in 10.0 mi South 17.3 mph 24.2 mph N/A   Overcast
2:55 PM 66.4 °F 58.6 °F 76% 29.69 in 10.0 mi SSW 15.0 mph 31.1 mph N/A   Overcast
3:15 PM 67.3 °F 59.0 °F 75% 29.69 in 10.0 mi SSW 15.0 mph 26.5 mph N/A   Overcast
3:35 PM 67.1 °F 58.8 °F 75% 29.70 in 10.0 mi SSW 15.0 mph 26.5 mph N/A   Overcast
3:55 PM 67.1 °F 58.6 °F 74% 29.70 in 10.0 mi SSW 11.5 mph 26.5 mph N/A   Overcast
4:15 PM 66.6 °F 58.8 °F 76% 29.71 in 10.0 mi SSW 12.7 mph 20.7 mph N/A   Overcast
4:35 PM 66.4 °F 58.3 °F 75% 29.71 in 10.0 mi SSW 12.7 mph 20.7 mph N/A   Overcast
4:55 PM 66.4 °F 58.1 °F 75% 29.71 in 10.0 mi SW 12.7 mph 19.6 mph N/A   Overcast
5:15 PM 67.3 °F 58.3 °F 73% 29.71 in 10.0 mi SSW 11.5 mph 19.6 mph N/A   Overcast
5:35 PM 66.2 °F 57.9 °F 75% 29.72 in 10.0 mi SSW 16.1 mph 25.3 mph N/A   Overcast
5:55 PM 65.7 °F 57.7 °F 76% 29.73 in 10.0 mi SSW 15.0 mph 21.9 mph N/A   Mostly Cloudy
6:15 PM 64.8 °F 57.6 °F 77% 29.73 in 10.0 mi SSW 8.1 mph 18.4 mph N/A   Mostly Cloudy
6:35 PM 64.6 °F 58.1 °F 79% 29.74 in 10.0 mi SSW 9.2 mph 16.1 mph N/A   Overcast
6:55 PM 64.4 °F 57.7 °F 79% 29.74 in 10.0 mi SSW 8.1 mph - N/A   Overcast
7:15 PM 64.0 °F 58.1 °F 81% 29.75 in 10.0 mi SSW 8.1 mph - N/A   Overcast
7:35 PM 63.9 °F 58.1 °F 81% 29.76 in 10.0 mi South 6.9 mph - N/A   Overcast
7:55 PM 62.8 °F 58.1 °F 85% 29.76 in 10.0 mi SSW 6.9 mph - N/A   Overcast
8:15 PM 62.6 °F 58.1 °F 85% 29.77 in 10.0 mi South 6.9 mph - N/A   Mostly Cloudy
8:35 PM 62.6 °F 58.5 °F 86% 29.78 in 10.0 mi SSW 5.8 mph - N/A   Mostly Cloudy
8:55 PM 61.7 °F 58.5 °F 89% 29.79 in 10.0 mi SW 5.8 mph - N/A   Mostly Cloudy
9:15 PM 61.0 °F 58.5 °F 91% 29.81 in 10.0 mi SW 4.6 mph - N/A   Mostly Cloudy
9:35 PM 59.7 °F 57.7 °F 93% 29.82 in 10.0 mi SSW 4.6 mph - N/A   Scattered Clouds
9:55 PM 59.2 °F 57.6 °F 94% 29.83 in 10.0 mi SW 3.5 mph - N/A   Clear
10:15 PM 58.5 °F 56.8 °F 94% 29.84 in 10.0 mi Calm Calm - N/A   Clear
10:55 PM 57.9 °F 53.8 °F 86% 29.87 in 10.0 mi SW 5.8 mph - N/A   Clear
11:15 PM 56.8 °F 51.6 °F 83% 29.87 in 10.0 mi SW 4.6 mph - N/A   Clear
11:35 PM 56.1 °F 51.1 °F 83% 29.87 in 7.0 mi SSW 3.5 mph - N/A   Clear
11:55 PM 56.3 °F 50.2 °F 80% 29.86 in 10.0 mi SW 3.5 mph - N/A   Clear